Wetterdaten: Samstag, 12.03.2016
Datum Zeit Auen-Temp. Temp gefhlt Luftfeuchte Luftdruck Regen Wind Richtung Richtung Sonnenschein Taupunkt Windben
12.03.2016 00:00 0,0 C 1,3 C 79 % 1020,8 hPa 0,0 mm 0,0 km/h (0 Bft) SO 135 0 min -3,2 C 0,0 km/h (0 Bft)
12.03.2016 00:05 0,0 C 1,3 C 79 % 1020,8 hPa 0,0 mm 0,3 km/h (0 Bft) S-SO 157 0 min -3,2 C 0,0 km/h (0 Bft)
12.03.2016 00:10 0,0 C 1,3 C 79 % 1020,8 hPa 0,0 mm 0,3 km/h (0 Bft) S 180 0 min -3,2 C 3,0 km/h (1 Bft)
12.03.2016 00:15 0,0 C 1,3 C 79 % 1020,8 hPa 0,0 mm 0,6 km/h (0 Bft) S 180 0 min -3,2 C 0,0 km/h (0 Bft)
12.03.2016 00:20 0,0 C 1,3 C 79 % 1020,8 hPa 0,0 mm 0,3 km/h (0 Bft) W-NW 292 0 min -3,2 C 0,0 km/h (0 Bft)
12.03.2016 00:25 0,0 C 1,3 C 79 % 1020,8 hPa 0,0 mm 0,0 km/h (0 Bft) N-NO 22 0 min -3,2 C 0,0 km/h (0 Bft)
12.03.2016 00:30 0,0 C 1,3 C 79 % 1020,8 hPa 0,0 mm 0,0 km/h (0 Bft) S 180 0 min -3,2 C 0,0 km/h (0 Bft)
12.03.2016 00:35 1,4 C 1,2 C 79 % 1020,8 hPa 0,0 mm 0,0 km/h (0 Bft) S-SO 157 0 min -1,8 C 0,0 km/h (0 Bft)
12.03.2016 00:40 1,4 C 1,2 C 79 % 1020,8 hPa 0,0 mm 0,0 km/h (0 Bft) W 270 0 min -1,8 C 0,0 km/h (0 Bft)
12.03.2016 00:45 1,3 C 1,1 C 79 % 1020,8 hPa 0,0 mm 0,0 km/h (0 Bft) NO 45 0 min -1,9 C 0,0 km/h (0 Bft)
12.03.2016 00:50 1,3 C 1,1 C 79 % 1020,9 hPa 0,0 mm 0,0 km/h (0 Bft) NO 45 0 min -1,9 C 0,0 km/h (0 Bft)
12.03.2016 00:55 1,4 C 1,1 C 79 % 1020,9 hPa 0,0 mm 0,0 km/h (0 Bft) O-SO 112 0 min -1,8 C 0,0 km/h (0 Bft)
12.03.2016 01:00 1,3 C 1,1 C 79 % 1020,9 hPa 0,0 mm 0,0 km/h (0 Bft) S-SO 157 0 min -1,9 C 0,0 km/h (0 Bft)
12.03.2016 01:05 1,4 C 1,2 C 79 % 1020,9 hPa 0,0 mm 0,0 km/h (0 Bft) O-NO 67 0 min -1,8 C 0,0 km/h (0 Bft)
12.03.2016 01:10 1,3 C 1,1 C 79 % 1020,9 hPa 0,0 mm 0,0 km/h (0 Bft) N-NO 22 0 min -1,9 C 0,0 km/h (0 Bft)
12.03.2016 01:15 1,2 C 1,0 C 79 % 1020,9 hPa 0,0 mm 0,0 km/h (0 Bft) SO 135 0 min -2,0 C 0,0 km/h (0 Bft)
12.03.2016 01:20 1,4 C 1,2 C 79 % 1020,9 hPa 0,0 mm 0,0 km/h (0 Bft) O-NO 67 0 min -1,8 C 0,0 km/h (0 Bft)
12.03.2016 01:25 1,3 C 1,1 C 79 % 1020,9 hPa 0,0 mm 0,0 km/h (0 Bft) O-SO 112 0 min -1,9 C 0,0 km/h (0 Bft)
12.03.2016 01:29 1,3 C 1,1 C 79 % 1021,0 hPa 0,0 mm 0,0 km/h (0 Bft) O-NO 67 0 min -1,9 C 0,0 km/h (0 Bft)
12.03.2016 01:30 1,3 C 1,1 C 79 % 1021,0 hPa 0,0 mm 0,0 km/h (0 Bft) O-NO 67 0 min -1,9 C 0,0 km/h (0 Bft)
12.03.2016 01:35 1,3 C 1,0 C 79 % 1021,0 hPa 0,0 mm 0,0 km/h (0 Bft) O-SO 112 0 min -1,9 C 0,0 km/h (0 Bft)
12.03.2016 01:40 1,3 C 1,0 C 79 % 1021,0 hPa 0,0 mm 0,0 km/h (0 Bft) SO 135 0 min -1,9 C 0,0 km/h (0 Bft)
12.03.2016 01:45 1,2 C 1,0 C 80 % 1021,0 hPa 0,0 mm 0,0 km/h (0 Bft) O-SO 112 0 min -1,9 C 0,0 km/h (0 Bft)
12.03.2016 01:50 1,2 C 1,0 C 80 % 1021,0 hPa 0,0 mm 0,0 km/h (0 Bft) O-SO 112 0 min -1,9 C 0,0 km/h (0 Bft)
12.03.2016 01:55 1,2 C 1,0 C 80 % 1021,0 hPa 0,0 mm 0,0 km/h (0 Bft) SO 135 0 min -1,9 C 0,0 km/h (0 Bft)
12.03.2016 02:00 1,2 C 1,0 C 80 % 1021,0 hPa 0,0 mm 0,0 km/h (0 Bft) O-SO 112 0 min -1,9 C 3,6 km/h (1 Bft)
12.03.2016 02:05 1,2 C 0,9 C 80 % 1021,0 hPa 0,0 mm 0,3 km/h (0 Bft) SO 135 0 min -1,9 C 0,0 km/h (0 Bft)
12.03.2016 02:10 1,1 C 0,9 C 80 % 1020,9 hPa 0,0 mm 0,3 km/h (0 Bft) S 180 0 min -2,0 C 0,0 km/h (0 Bft)
12.03.2016 02:15 1,1 C 0,9 C 80 % 1020,9 hPa 0,0 mm 0,0 km/h (0 Bft) S-SO 157 0 min -2,0 C 0,0 km/h (0 Bft)
12.03.2016 02:20 1,1 C 0,9 C 81 % 1020,9 hPa 0,0 mm 0,0 km/h (0 Bft) O-SO 112 0 min -1,8 C 0,0 km/h (0 Bft)
12.03.2016 02:25 1,1 C 0,9 C 80 % 1020,9 hPa 0,0 mm 0,0 km/h (0 Bft) W-SW 247 0 min -2,0 C 0,0 km/h (0 Bft)
12.03.2016 02:30 1,1 C 0,9 C 80 % 1020,9 hPa 0,0 mm 0,0 km/h (0 Bft) W-SW 247 0 min -2,0 C 0,0 km/h (0 Bft)
12.03.2016 02:35 1,1 C 0,9 C 80 % 1020,9 hPa 0,0 mm 0,0 km/h (0 Bft) S-SO 157 0 min -2,0 C 0,0 km/h (0 Bft)
12.03.2016 02:40 1,1 C 0,9 C 80 % 1020,9 hPa 0,0 mm 0,0 km/h (0 Bft) S-SO 157 0 min -2,0 C 0,0 km/h (0 Bft)
12.03.2016 02:45 1,1 C 0,9 C 81 % 1020,9 hPa 0,0 mm 0,0 km/h (0 Bft) SO 135 0 min -1,8 C 0,0 km/h (0 Bft)
12.03.2016 02:50 1,1 C 0,9 C 81 % 1020,6 hPa 0,0 mm 0,0 km/h (0 Bft) S-SO 157 0 min -1,8 C 0,0 km/h (0 Bft)
12.03.2016 02:55 1,1 C 0,9 C 81 % 1020,6 hPa 0,0 mm 0,0 km/h (0 Bft) O-SO 112 0 min -1,8 C 0,0 km/h (0 Bft)
12.03.2016 03:00 1,1 C 0,9 C 81 % 1020,6 hPa 0,0 mm 0,0 km/h (0 Bft) SO 135 0 min -1,8 C 0,0 km/h (0 Bft)
12.03.2016 03:05 1,1 C 0,9 C 82 % 1020,6 hPa 0,0 mm 0,9 km/h (0 Bft) S-SO 157 0 min -1,6 C 0,0 km/h (0 Bft)
12.03.2016 03:10 1,0 C 0,8 C 81 % 1020,6 hPa 0,0 mm 0,9 km/h (0 Bft) S 180 0 min -1,9 C 10,7 km/h (2 Bft)
12.03.2016 03:15 1,0 C 0,8 C 81 % 1020,6 hPa 0,0 mm 0,0 km/h (0 Bft) O-SO 112 0 min -1,9 C 0,0 km/h (0 Bft)
12.03.2016 03:20 1,0 C 0,8 C 81 % 1020,6 hPa 0,0 mm 0,0 km/h (0 Bft) O-SO 112 0 min -1,9 C 0,0 km/h (0 Bft)
12.03.2016 03:25 1,0 C 0,8 C 81 % 1020,6 hPa 0,0 mm 0,0 km/h (0 Bft) O-SO 112 0 min -1,9 C 0,0 km/h (0 Bft)
12.03.2016 03:30 1,0 C 0,8 C 82 % 1020,6 hPa 0,0 mm 0,0 km/h (0 Bft) O-SO 112 0 min -1,7 C 0,0 km/h (0 Bft)
12.03.2016 03:35 1,0 C 0,8 C 82 % 1020,6 hPa 0,0 mm 0,0 km/h (0 Bft) S-SO 157 0 min -1,7 C 0,0 km/h (0 Bft)
12.03.2016 03:40 1,0 C 0,8 C 82 % 1020,6 hPa 0,0 mm 0,0 km/h (0 Bft) O-SO 112 0 min -1,7 C 0,0 km/h (0 Bft)
12.03.2016 03:45 1,0 C 0,8 C 82 % 1020,6 hPa 0,0 mm 0,0 km/h (0 Bft) O-SO 112 0 min -1,7 C 0,0 km/h (0 Bft)
12.03.2016 03:50 1,0 C 0,8 C 83 % 1020,6 hPa 0,0 mm 0,0 km/h (0 Bft) O 90 0 min -1,6 C 0,0 km/h (0 Bft)
12.03.2016 03:55 1,0 C 0,8 C 83 % 1020,6 hPa 0,0 mm 0,0 km/h (0 Bft) O-NO 67 0 min -1,6 C 0,0 km/h (0 Bft)
12.03.2016 04:00 1,0 C 0,8 C 83 % 1020,6 hPa 0,0 mm 0,0 km/h (0 Bft) O-SO 112 0 min -1,6 C 0,0 km/h (0 Bft)
12.03.2016 04:05 1,0 C 0,8 C 83 % 1020,6 hPa 0,0 mm 0,3 km/h (0 Bft) N-NO 22 0 min -1,6 C 3,9 km/h (1 Bft)
12.03.2016 04:10 1,0 C 0,8 C 83 % 1020,5 hPa 0,0 mm 1,2 km/h (1 Bft) NW 315 0 min -1,6 C 3,9 km/h (1 Bft)
12.03.2016 04:15 1,0 C 0,8 C 83 % 1020,5 hPa 0,0 mm 2,4 km/h (1 Bft) O-NO 67 0 min -1,6 C 5,4 km/h (1 Bft)
12.03.2016 04:20 1,0 C 0,8 C 83 % 1020,5 hPa 0,0 mm 3,0 km/h (1 Bft) S-SO 157 0 min -1,6 C 0,0 km/h (0 Bft)
12.03.2016 04:25 1,0 C 0,8 C 83 % 1020,5 hPa 0,0 mm 1,5 km/h (1 Bft) O-SO 112 0 min -1,6 C 0,0 km/h (0 Bft)
12.03.2016 04:29 1,1 C 0,9 C 83 % 1020,4 hPa 0,0 mm 1,2 km/h (1 Bft) O-NO 67 0 min -1,5 C 0,0 km/h (0 Bft)
12.03.2016 04:31 1,1 C 0,9 C 83 % 1020,4 hPa 0,0 mm 1,2 km/h (1 Bft) O-NO 67 0 min -1,5 C 0,0 km/h (0 Bft)
12.03.2016 04:35 1,1 C 0,9 C 84 % 1020,4 hPa 0,0 mm 2,1 km/h (1 Bft) O-NO 67 0 min -1,3 C 3,3 km/h (1 Bft)
12.03.2016 04:40 1,1 C 0,9 C 84 % 1020,4 hPa 0,0 mm 2,1 km/h (1 Bft) N 360 0 min -1,3 C 0,0 km/h (0 Bft)
12.03.2016 04:45 1,1 C 0,9 C 84 % 1020,4 hPa 0,0 mm 2,1 km/h (1 Bft) O-SO 112 0 min -1,3 C 0,0 km/h (0 Bft)
12.03.2016 04:50 1,0 C 0,9 C 84 % 1020,5 hPa 0,0 mm 1,2 km/h (1 Bft) O-NO 67 0 min -1,4 C 13,7 km/h (3 Bft)
12.03.2016 04:55 1,0 C 0,9 C 84 % 1020,5 hPa 0,0 mm 0,6 km/h (0 Bft) N 360 0 min -1,4 C 3,9 km/h (1 Bft)
12.03.2016 05:00 1,1 C 0,9 C 84 % 1020,5 hPa 0,0 mm 0,9 km/h (0 Bft) N-NO 22 0 min -1,3 C 0,0 km/h (0 Bft)
12.03.2016 05:05 1,0 C 0,9 C 84 % 1020,5 hPa 0,0 mm 1,2 km/h (1 Bft) W 270 0 min -1,4 C 0,0 km/h (0 Bft)
12.03.2016 05:10 1,1 C 0,9 C 84 % 1020,5 hPa 0,0 mm 0,9 km/h (0 Bft) O-NO 67 0 min -1,3 C 3,9 km/h (1 Bft)
12.03.2016 05:15 1,1 C 0,9 C 84 % 1020,5 hPa 0,0 mm 2,1 km/h (1 Bft) O-NO 67 0 min -1,3 C 7,2 km/h (2 Bft)
12.03.2016 05:20 1,1 C 0,9 C 85 % 1020,5 hPa 0,0 mm 3,3 km/h (1 Bft) NO 45 0 min -1,1 C 4,2 km/h (1 Bft)
12.03.2016 05:25 1,1 C 0,9 C 85 % 1020,5 hPa 0,0 mm 2,4 km/h (1 Bft) O-SO 112 0 min -1,1 C 3,3 km/h (1 Bft)
12.03.2016 05:30 1,0 C 0,9 C 85 % 1020,4 hPa 0,0 mm 1,2 km/h (1 Bft) NW 315 0 min -1,2 C 0,0 km/h (0 Bft)
12.03.2016 05:35 1,0 C 0,9 C 85 % 1020,4 hPa 0,0 mm 0,6 km/h (0 Bft) O-NO 67 0 min -1,2 C 6,0 km/h (2 Bft)
12.03.2016 05:40 1,0 C 0,9 C 85 % 1020,4 hPa 0,0 mm 0,6 km/h (0 Bft) SO 135 0 min -1,2 C 5,1 km/h (1 Bft)
12.03.2016 05:45 1,0 C 0,9 C 85 % 1020,4 hPa 0,0 mm 0,6 km/h (0 Bft) O-SO 112 0 min -1,2 C 0,0 km/h (0 Bft)
12.03.2016 05:50 1,0 C 0,9 C 85 % 1020,2 hPa 0,0 mm 0,3 km/h (0 Bft) NO 45 0 min -1,2 C 0,0 km/h (0 Bft)
12.03.2016 05:55 1,0 C 0,9 C 85 % 1020,2 hPa 0,0 mm 0,9 km/h (0 Bft) W 270 0 min -1,2 C 0,0 km/h (0 Bft)
12.03.2016 06:00 1,0 C 0,9 C 85 % 1020,2 hPa 0,0 mm 0,9 km/h (0 Bft) N-NO 22 0 min -1,2 C 0,0 km/h (0 Bft)
12.03.2016 06:05 1,0 C 0,9 C 85 % 1020,2 hPa 0,0 mm 0,9 km/h (0 Bft) N 360 0 min -1,2 C 0,0 km/h (0 Bft)
12.03.2016 06:10 1,0 C 0,9 C 85 % 1020,6 hPa 0,0 mm 1,2 km/h (1 Bft) O 90 0 min -1,2 C 0,0 km/h (0 Bft)
12.03.2016 06:15 1,0 C 0,9 C 85 % 1020,6 hPa 0,0 mm 0,9 km/h (0 Bft) N 360 0 min -1,2 C 0,0 km/h (0 Bft)
12.03.2016 06:20 1,0 C 0,9 C 82 % 1020,6 hPa 0,0 mm 2,4 km/h (1 Bft) SO 135 0 min -1,7 C 5,4 km/h (1 Bft)
12.03.2016 06:25 1,0 C 0,9 C 83 % 1020,6 hPa 0,0 mm 2,1 km/h (1 Bft) O-NO 67 0 min -1,6 C 0,0 km/h (0 Bft)
12.03.2016 06:30 1,0 C 0,9 C 83 % 1020,8 hPa 0,0 mm 1,2 km/h (1 Bft) SO 135 0 min -1,6 C 0,0 km/h (0 Bft)
12.03.2016 06:35 1,0 C 0,9 C 83 % 1020,8 hPa 0,0 mm 0,9 km/h (0 Bft) NO 45 0 min -1,6 C 0,0 km/h (0 Bft)
12.03.2016 06:40 1,0 C 0,9 C 86 % 1020,8 hPa 0,0 mm 0,9 km/h (0 Bft) O-SO 112 0 min -1,1 C 0,0 km/h (0 Bft)
12.03.2016 06:45 1,0 C 0,9 C 83 % 1020,8 hPa 0,0 mm 0,9 km/h (0 Bft) O-NO 67 0 min -1,6 C 0,0 km/h (0 Bft)
12.03.2016 06:50 1,0 C 0,9 C 86 % 1020,8 hPa 0,0 mm 0,6 km/h (0 Bft) NO 45 0 min -1,1 C 0,0 km/h (0 Bft)
12.03.2016 06:55 1,0 C 0,9 C 83 % 1020,8 hPa 0,0 mm 0,3 km/h (0 Bft) O-SO 112 0 min -1,6 C 0,0 km/h (0 Bft)
12.03.2016 07:00 1,0 C 1,0 C 83 % 1020,8 hPa 0,0 mm 0,3 km/h (0 Bft) SO 135 0 min -1,6 C 0,0 km/h (0 Bft)
12.03.2016 07:05 1,0 C 1,0 C 83 % 1020,8 hPa 0,0 mm 1,5 km/h (1 Bft) NO 45 0 min -1,6 C 6,0 km/h (2 Bft)
12.03.2016 07:10 1,1 C 1,0 C 86 % 1020,9 hPa 0,0 mm 1,8 km/h (1 Bft) N-NO 22 0 min -1,0 C 0,0 km/h (0 Bft)
12.03.2016 07:15 1,1 C 1,0 C 86 % 1020,9 hPa 0,0 mm 0,9 km/h (0 Bft) N-NO 22 0 min -1,0 C 0,0 km/h (0 Bft)
12.03.2016 07:20 1,1 C 1,0 C 86 % 1020,9 hPa 0,0 mm 0,6 km/h (0 Bft) O-SO 112 0 min -1,0 C 0,0 km/h (0 Bft)
12.03.2016 07:25 1,1 C 1,1 C 83 % 1020,9 hPa 0,0 mm 1,8 km/h (1 Bft) NO 45 0 min -1,5 C 0,0 km/h (0 Bft)
12.03.2016 07:30 1,1 C 1,1 C 83 % 1021,1 hPa 0,0 mm 1,8 km/h (1 Bft) O-NO 67 0 min -1,5 C 0,0 km/h (0 Bft)
12.03.2016 07:32 1,1 C 1,1 C 83 % 1021,1 hPa 0,0 mm 1,8 km/h (1 Bft) O-NO 67 0 min -1,5 C 0,0 km/h (0 Bft)
12.03.2016 07:35 1,1 C 1,1 C 83 % 1021,1 hPa 0,0 mm 2,1 km/h (1 Bft) S 180 0 min -1,5 C 3,6 km/h (1 Bft)
12.03.2016 07:40 1,1 C 1,1 C 83 % 1021,1 hPa 0,0 mm 2,4 km/h (1 Bft) O-NO 67 0 min -1,5 C 6,6 km/h (2 Bft)
12.03.2016 07:45 1,1 C 1,1 C 83 % 1021,1 hPa 0,0 mm 2,7 km/h (1 Bft) SO 135 0 min -1,5 C 0,0 km/h (0 Bft)
12.03.2016 07:50 1,1 C 1,2 C 83 % 1021,2 hPa 0,0 mm 4,2 km/h (1 Bft) O-NO 67 0 min -1,5 C 7,5 km/h (2 Bft)
12.03.2016 07:55 1,1 C 1,2 C 84 % 1021,2 hPa 0,0 mm 3,3 km/h (1 Bft) O-NO 67 0 min -1,3 C 3,3 km/h (1 Bft)
12.03.2016 08:00 1,3 C 1,2 C 87 % 1021,2 hPa 0,0 mm 2,7 km/h (1 Bft) N-NO 22 0 min -0,6 C 3,9 km/h (1 Bft)
12.03.2016 08:05 1,3 C 1,3 C 84 % 1021,2 hPa 0,0 mm 1,5 km/h (1 Bft) NO 45 0 min -1,1 C 0,0 km/h (0 Bft)
12.03.2016 08:10 1,3 C 1,3 C 84 % 1021,2 hPa 0,0 mm 2,1 km/h (1 Bft) O-NO 67 0 min -1,1 C 10,7 km/h (2 Bft)
12.03.2016 08:15 1,3 C 1,3 C 84 % 1021,2 hPa 0,0 mm 3,9 km/h (1 Bft) SO 135 0 min -1,1 C 0,0 km/h (0 Bft)
12.03.2016 08:20 1,3 C 1,4 C 84 % 1021,2 hPa 0,0 mm 3,3 km/h (1 Bft) N-NW 337 0 min -1,1 C 4,8 km/h (1 Bft)
12.03.2016 08:25 1,3 C 1,4 C 84 % 1021,2 hPa 0,0 mm 3,3 km/h (1 Bft) N-NO 22 0 min -1,1 C 9,5 km/h (2 Bft)
12.03.2016 08:30 1,3 C 1,4 C 84 % 1021,4 hPa 0,0 mm 4,5 km/h (1 Bft) O-NO 67 0 min -1,1 C 8,3 km/h (2 Bft)
12.03.2016 08:35 1,3 C 1,4 C 84 % 1021,4 hPa 0,0 mm 3,6 km/h (1 Bft) NO 45 0 min -1,1 C 4,5 km/h (1 Bft)
12.03.2016 08:40 1,3 C 1,4 C 84 % 1021,4 hPa 0,0 mm 4,5 km/h (1 Bft) NO 45 0 min -1,1 C 15,8 km/h (3 Bft)
12.03.2016 08:45 1,3 C 1,5 C 84 % 1021,4 hPa 0,0 mm 5,1 km/h (1 Bft) O-NO 67 0 min -1,1 C 8,0 km/h (2 Bft)
12.03.2016 08:50 1,4 C 1,5 C 84 % 1021,4 hPa 0,0 mm 5,4 km/h (1 Bft) NO 45 0 min -1,0 C 6,3 km/h (2 Bft)
12.03.2016 08:55 1,4 C 1,5 C 84 % 1021,4 hPa 0,0 mm 6,0 km/h (2 Bft) O-SO 112 0 min -1,0 C 10,7 km/h (2 Bft)
12.03.2016 09:00 1,4 C 1,5 C 84 % 1021,4 hPa 0,0 mm 6,0 km/h (2 Bft) O-NO 67 0 min -1,0 C 17,9 km/h (3 Bft)
12.03.2016 09:05 1,4 C 1,4 C 84 % 1021,4 hPa 0,0 mm 6,9 km/h (2 Bft) O-NO 67 0 min -1,0 C 10,1 km/h (2 Bft)
12.03.2016 09:10 1,4 C 1,3 C 84 % 1021,6 hPa 0,0 mm 7,5 km/h (2 Bft) O 90 0 min -1,0 C 17,3 km/h (3 Bft)
12.03.2016 09:15 1,4 C 1,2 C 84 % 1021,6 hPa 0,0 mm 8,9 km/h (2 Bft) O-SO 112 0 min -1,0 C 10,7 km/h (2 Bft)
12.03.2016 09:20 1,4 C 1,2 C 84 % 1021,6 hPa 0,0 mm 8,9 km/h (2 Bft) O-NO 67 0 min -1,0 C 3,6 km/h (1 Bft)
12.03.2016 09:25 1,4 C 1,3 C 84 % 1021,6 hPa 0,0 mm 8,6 km/h (2 Bft) O 90 0 min -1,0 C 14,3 km/h (3 Bft)
12.03.2016 09:30 1,4 C 1,4 C 84 % 1021,7 hPa 0,0 mm 8,3 km/h (2 Bft) N-NO 22 0 min -1,0 C 5,4 km/h (1 Bft)
12.03.2016 09:35 1,5 C 1,6 C 84 % 1021,7 hPa 0,0 mm 7,5 km/h (2 Bft) NO 45 0 min -0,9 C 10,4 km/h (2 Bft)
12.03.2016 09:40 1,5 C 1,7 C 84 % 1021,7 hPa 0,0 mm 6,9 km/h (2 Bft) N-NO 22 0 min -0,9 C 8,9 km/h (2 Bft)
12.03.2016 09:45 1,6 C 1,7 C 84 % 1021,7 hPa 0,0 mm 8,3 km/h (2 Bft) O-NO 67 0 min -0,8 C 18,2 km/h (3 Bft)
12.03.2016 09:50 1,6 C 1,7 C 84 % 1021,9 hPa 0,0 mm 8,9 km/h (2 Bft) O-NO 67 0 min -0,8 C 22,7 km/h (4 Bft)
12.03.2016 09:55 1,6 C 1,4 C 84 % 1021,9 hPa 0,0 mm 11,6 km/h (2 Bft) N-NO 22 0 min -0,8 C 29,2 km/h (5 Bft)
12.03.2016 10:00 1,6 C 1,5 C 84 % 1021,9 hPa 0,0 mm 11,0 km/h (2 Bft) O-NO 67 0 min -0,8 C 12,2 km/h (2 Bft)
12.03.2016 10:05 1,6 C 1,5 C 84 % 1021,9 hPa 0,0 mm 11,3 km/h (2 Bft) O 90 0 min -0,8 C 15,5 km/h (3 Bft)
12.03.2016 10:10 1,6 C 1,5 C 84 % 1022,2 hPa 0,0 mm 10,4 km/h (2 Bft) O-NO 67 0 min -0,8 C 19,7 km/h (3 Bft)
12.03.2016 10:15 1,6 C 1,3 C 84 % 1022,2 hPa 0,0 mm 11,9 km/h (2 Bft) NO 45 0 min -0,8 C 11,6 km/h (2 Bft)
12.03.2016 10:20 1,6 C 1,5 C 84 % 1022,2 hPa 0,0 mm 10,7 km/h (2 Bft) NO 45 0 min -0,8 C 11,3 km/h (2 Bft)
12.03.2016 10:25 1,6 C 1,9 C 84 % 1022,2 hPa 0,0 mm 9,2 km/h (2 Bft) O-NO 67 0 min -0,8 C 14,9 km/h (3 Bft)
12.03.2016 10:30 1,7 C 1,9 C 84 % 1021,9 hPa 0,0 mm 9,5 km/h (2 Bft) O-NO 67 0 min -0,7 C 18,2 km/h (3 Bft)
12.03.2016 10:33 1,7 C 1,9 C 84 % 1021,9 hPa 0,0 mm 9,5 km/h (2 Bft) O-NO 67 0 min -0,7 C 18,2 km/h (3 Bft)
12.03.2016 10:35 1,7 C 1,7 C 84 % 1021,9 hPa 0,0 mm 10,7 km/h (2 Bft) NO 45 0 min -0,7 C 15,5 km/h (3 Bft)
12.03.2016 10:40 1,7 C 1,8 C 84 % 1021,9 hPa 0,0 mm 11,3 km/h (2 Bft) N-NO 22 0 min -0,7 C 10,1 km/h (2 Bft)
12.03.2016 10:45 1,7 C 1,7 C 84 % 1021,9 hPa 0,0 mm 10,4 km/h (2 Bft) NO 45 0 min -0,7 C 12,2 km/h (2 Bft)
12.03.2016 10:50 1,7 C 1,6 C 84 % 1022,1 hPa 0,0 mm 10,4 km/h (2 Bft) O-SO 112 0 min -0,7 C 8,9 km/h (2 Bft)
12.03.2016 10:55 1,6 C 1,5 C 84 % 1022,1 hPa 0,0 mm 11,6 km/h (2 Bft) O-NO 67 0 min -0,8 C 10,7 km/h (2 Bft)
12.03.2016 11:00 1,6 C 1,6 C 84 % 1022,1 hPa 0,0 mm 10,1 km/h (2 Bft) NO 45 0 min -0,8 C 8,3 km/h (2 Bft)
12.03.2016 11:05 1,7 C 1,7 C 84 % 1022,1 hPa 0,0 mm 9,2 km/h (2 Bft) NO 45 0 min -0,7 C 5,7 km/h (1 Bft)
12.03.2016 11:10 1,7 C 1,8 C 84 % 1022,1 hPa 0,0 mm 9,2 km/h (2 Bft) NO 45 0 min -0,7 C 10,1 km/h (2 Bft)
12.03.2016 11:15 1,7 C 2,0 C 84 % 1022,1 hPa 0,0 mm 8,6 km/h (2 Bft) NO 45 0 min -0,7 C 13,4 km/h (3 Bft)
12.03.2016 11:20 1,7 C 1,8 C 84 % 1022,1 hPa 0,0 mm 8,9 km/h (2 Bft) NO 45 0 min -0,7 C 11,9 km/h (2 Bft)
12.03.2016 11:25 1,7 C 1,7 C 84 % 1022,1 hPa 0,0 mm 9,2 km/h (2 Bft) N 360 0 min -0,7 C 8,0 km/h (2 Bft)
12.03.2016 11:30 1,7 C 1,8 C 84 % 1022,2 hPa 0,0 mm 9,5 km/h (2 Bft) NO 45 0 min -0,7 C 16,7 km/h (3 Bft)
12.03.2016 11:35 1,7 C 1,6 C 84 % 1022,2 hPa 0,0 mm 10,4 km/h (2 Bft) O-NO 67 0 min -0,7 C 11,0 km/h (2 Bft)
12.03.2016 11:40 1,7 C 1,8 C 84 % 1022,2 hPa 0,0 mm 9,5 km/h (2 Bft) N-NO 22 0 min -0,7 C 6,0 km/h (2 Bft)
12.03.2016 11:45 1,8 C 1,9 C 84 % 1022,2 hPa 0,0 mm 8,9 km/h (2 Bft) NO 45 0 min -0,6 C 11,3 km/h (2 Bft)
12.03.2016 11:50 1,8 C 1,9 C 84 % 1022,2 hPa 0,0 mm 9,5 km/h (2 Bft) O-NO 67 0 min -0,6 C 7,2 km/h (2 Bft)
12.03.2016 11:55 1,8 C 2,1 C 84 % 1022,2 hPa 0,0 mm 8,6 km/h (2 Bft) NO 45 0 min -0,6 C 10,1 km/h (2 Bft)
12.03.2016 12:00 1,8 C 2,2 C 84 % 1022,2 hPa 0,0 mm 7,7 km/h (2 Bft) N-NO 22 0 min -0,6 C 9,2 km/h (2 Bft)
12.03.2016 12:05 1,8 C 2,1 C 84 % 1022,2 hPa 0,0 mm 8,3 km/h (2 Bft) O-NO 67 0 min -0,6 C 14,9 km/h (3 Bft)
12.03.2016 12:10 1,8 C 2,1 C 84 % 1021,9 hPa 0,0 mm 8,6 km/h (2 Bft) O-SO 112 0 min -0,6 C 6,0 km/h (2 Bft)
12.03.2016 12:15 1,8 C 2,2 C 84 % 1021,9 hPa 0,0 mm 7,5 km/h (2 Bft) O-NO 67 0 min -0,6 C 6,6 km/h (2 Bft)
12.03.2016 12:20 1,8 C 2,3 C 84 % 1021,9 hPa 0,0 mm 6,6 km/h (2 Bft) O-NO 67 0 min -0,6 C 12,2 km/h (2 Bft)
12.03.2016 12:25 1,8 C 2,1 C 84 % 1021,9 hPa 0,0 mm 8,0 km/h (2 Bft) O-NO 67 0 min -0,6 C 19,7 km/h (3 Bft)
12.03.2016 12:30 1,8 C 1,8 C 84 % 1022,1 hPa 0,0 mm 9,2 km/h (2 Bft) NO 45 0 min -0,6 C 18,5 km/h (3 Bft)
12.03.2016 12:35 1,8 C 1,9 C 84 % 1022,1 hPa 0,0 mm 9,2 km/h (2 Bft) O-NO 67 0 min -0,6 C 6,6 km/h (2 Bft)
12.03.2016 12:40 1,8 C 2,1 C 84 % 1022,1 hPa 0,0 mm 8,0 km/h (2 Bft) O-NO 67 0 min -0,6 C 7,5 km/h (2 Bft)
12.03.2016 12:45 1,9 C 2,2 C 84 % 1022,1 hPa 0,0 mm 7,2 km/h (2 Bft) O-SO 112 0 min -0,5 C 6,6 km/h (2 Bft)
12.03.2016 12:50 1,9 C 2,0 C 84 % 1022,1 hPa 0,0 mm 8,6 km/h (2 Bft) O-NO 67 0 min -0,5 C 16,4 km/h (3 Bft)
12.03.2016 12:55 1,9 C 2,1 C 84 % 1022,1 hPa 0,0 mm 8,3 km/h (2 Bft) O 90 0 min -0,5 C 8,0 km/h (2 Bft)
12.03.2016 13:00 1,9 C 2,2 C 84 % 1022,1 hPa 0,0 mm 9,2 km/h (2 Bft) O-NO 67 0 min -0,5 C 10,4 km/h (2 Bft)
12.03.2016 13:05 2,0 C 2,1 C 84 % 1022,1 hPa 0,0 mm 8,9 km/h (2 Bft) O-NO 67 0 min -0,4 C 8,3 km/h (2 Bft)
12.03.2016 13:10 2,0 C 2,2 C 84 % 1021,9 hPa 0,0 mm 8,6 km/h (2 Bft) O-NO 67 0 min -0,4 C 13,1 km/h (3 Bft)
12.03.2016 13:15 2,0 C 1,9 C 84 % 1021,9 hPa 0,0 mm 11,0 km/h (2 Bft) O-NO 67 0 min -0,4 C 8,9 km/h (2 Bft)
12.03.2016 13:20 2,0 C 1,9 C 84 % 1021,9 hPa 0,0 mm 11,3 km/h (2 Bft) NO 45 0 min -0,4 C 6,6 km/h (2 Bft)
12.03.2016 13:25 2,0 C 2,2 C 83 % 1021,9 hPa 0,0 mm 9,2 km/h (2 Bft) O-NO 67 0 min -0,6 C 12,5 km/h (3 Bft)
12.03.2016 13:30 2,2 C 2,2 C 83 % 1021,8 hPa 0,0 mm 8,6 km/h (2 Bft) O-NO 67 0 min -0,4 C 11,3 km/h (2 Bft)
12.03.2016 13:34 2,2 C 2,2 C 83 % 1021,8 hPa 0,0 mm 8,6 km/h (2 Bft) O-NO 67 0 min -0,4 C 11,3 km/h (2 Bft)
12.03.2016 13:35 2,2 C 2,1 C 83 % 1021,8 hPa 0,0 mm 9,8 km/h (2 Bft) O-NO 67 0 min -0,4 C 12,8 km/h (3 Bft)
12.03.2016 13:40 2,2 C 2,0 C 83 % 1021,8 hPa 0,0 mm 9,2 km/h (2 Bft) N-NO 22 0 min -0,4 C 5,4 km/h (1 Bft)
12.03.2016 13:45 2,2 C 2,1 C 83 % 1021,8 hPa 0,0 mm 9,8 km/h (2 Bft) NO 45 0 min -0,4 C 17,3 km/h (3 Bft)
12.03.2016 13:50 2,2 C 2,0 C 83 % 1021,8 hPa 0,0 mm 9,8 km/h (2 Bft) O-NO 67 0 min -0,4 C 8,3 km/h (2 Bft)
12.03.2016 13:55 2,2 C 1,9 C 83 % 1021,8 hPa 0,0 mm 11,3 km/h (2 Bft) NO 45 0 min -0,4 C 8,6 km/h (2 Bft)
12.03.2016 14:00 2,2 C 2,1 C 83 % 1021,8 hPa 0,0 mm 9,5 km/h (2 Bft) NO 45 0 min -0,4 C 6,0 km/h (2 Bft)
12.03.2016 14:05 2,2 C 2,3 C 83 % 1021,8 hPa 0,0 mm 7,2 km/h (2 Bft) O-NO 67 0 min -0,4 C 10,7 km/h (2 Bft)
12.03.2016 14:10 2,2 C 2,4 C 83 % 1021,6 hPa 0,0 mm 7,2 km/h (2 Bft) NO 45 0 min -0,4 C 12,2 km/h (2 Bft)
12.03.2016 14:15 2,2 C 2,3 C 83 % 1021,6 hPa 0,0 mm 8,6 km/h (2 Bft) O-NO 67 0 min -0,4 C 7,7 km/h (2 Bft)
12.03.2016 14:20 2,2 C 2,4 C 83 % 1021,6 hPa 0,0 mm 7,2 km/h (2 Bft) O-NO 67 0 min -0,4 C 4,2 km/h (1 Bft)
12.03.2016 14:25 2,2 C 2,5 C 83 % 1021,6 hPa 0,0 mm 6,0 km/h (2 Bft) O-NO 67 0 min -0,4 C 11,6 km/h (2 Bft)
12.03.2016 14:30 2,2 C 2,5 C 83 % 1021,6 hPa 0,0 mm 6,6 km/h (2 Bft) O-NO 67 0 min -0,4 C 10,1 km/h (2 Bft)
12.03.2016 14:35 2,3 C 2,5 C 83 % 1021,6 hPa 0,0 mm 6,3 km/h (2 Bft) N-NO 22 0 min -0,3 C 11,3 km/h (2 Bft)
12.03.2016 14:40 2,3 C 2,5 C 83 % 1021,6 hPa 0,0 mm 6,3 km/h (2 Bft) O-NO 67 0 min -0,3 C 10,1 km/h (2 Bft)
12.03.2016 14:45 2,3 C 2,5 C 83 % 1021,6 hPa 0,0 mm 6,3 km/h (2 Bft) NO 45 0 min -0,3 C 7,2 km/h (2 Bft)
12.03.2016 14:50 2,3 C 2,5 C 83 % 1021,5 hPa 0,0 mm 6,3 km/h (2 Bft) NO 45 0 min -0,3 C 5,7 km/h (1 Bft)
12.03.2016 14:55 2,3 C 2,6 C 82 % 1021,5 hPa 0,0 mm 4,8 km/h (1 Bft) N-NO 22 0 min -0,4 C 0,0 km/h (0 Bft)
12.03.2016 15:00 2,3 C 2,6 C 82 % 1021,5 hPa 0,0 mm 3,9 km/h (1 Bft) NO 45 0 min -0,4 C 6,0 km/h (2 Bft)
12.03.2016 15:05 2,3 C 2,6 C 82 % 1021,5 hPa 0,0 mm 4,5 km/h (1 Bft) NO 45 0 min -0,4 C 6,0 km/h (2 Bft)
12.03.2016 15:10 2,2 C 2,4 C 82 % 1021,7 hPa 0,0 mm 5,4 km/h (1 Bft) O 90 0 min -0,5 C 6,9 km/h (2 Bft)
12.03.2016 15:15 2,2 C 2,3 C 82 % 1021,7 hPa 0,0 mm 5,7 km/h (1 Bft) SO 135 0 min -0,5 C 7,5 km/h (2 Bft)
12.03.2016 15:20 2,2 C 2,3 C 82 % 1021,7 hPa 0,0 mm 5,1 km/h (1 Bft) O-NO 67 0 min -0,5 C 11,3 km/h (2 Bft)
12.03.2016 15:25 2,2 C 2,3 C 82 % 1021,7 hPa 0,0 mm 5,7 km/h (1 Bft) O-NO 67 0 min -0,5 C 8,6 km/h (2 Bft)
12.03.2016 15:30 2,2 C 2,1 C 82 % 1021,8 hPa 0,0 mm 7,2 km/h (2 Bft) O-NO 67 0 min -0,5 C 5,4 km/h (1 Bft)
12.03.2016 15:35 2,2 C 2,2 C 82 % 1021,8 hPa 0,0 mm 5,7 km/h (1 Bft) O-NO 67 0 min -0,5 C 6,6 km/h (2 Bft)
12.03.2016 15:40 2,0 C 2,3 C 82 % 1021,8 hPa 0,0 mm 3,3 km/h (1 Bft) O-NO 67 0 min -0,7 C 0,0 km/h (0 Bft)
12.03.2016 15:45 2,0 C 2,2 C 82 % 1021,8 hPa 0,0 mm 2,4 km/h (1 Bft) NO 45 0 min -0,7 C 0,0 km/h (0 Bft)
12.03.2016 15:50 2,0 C 2,2 C 82 % 1021,8 hPa 0,0 mm 2,4 km/h (1 Bft) NO 45 0 min -0,7 C 17,0 km/h (3 Bft)
12.03.2016 15:55 2,0 C 2,1 C 82 % 1021,8 hPa 0,0 mm 3,0 km/h (1 Bft) O-SO 112 0 min -0,7 C 6,6 km/h (2 Bft)
12.03.2016 16:00 2,0 C 2,1 C 82 % 1021,8 hPa 0,0 mm 4,8 km/h (1 Bft) NO 45 0 min -0,7 C 5,1 km/h (1 Bft)
12.03.2016 16:05 2,0 C 2,1 C 82 % 1021,8 hPa 0,0 mm 4,8 km/h (1 Bft) NO 45 0 min -0,7 C 4,8 km/h (1 Bft)
12.03.2016 16:10 2,0 C 2,0 C 82 % 1021,8 hPa 0,0 mm 3,6 km/h (1 Bft) NO 45 0 min -0,7 C 6,6 km/h (2 Bft)
12.03.2016 16:15 1,9 C 1,9 C 83 % 1021,8 hPa 0,0 mm 3,3 km/h (1 Bft) O-NO 67 0 min -0,7 C 3,6 km/h (1 Bft)
12.03.2016 16:20 1,9 C 1,9 C 83 % 1021,8 hPa 0,0 mm 3,3 km/h (1 Bft) O-SO 112 0 min -0,7 C 7,7 km/h (2 Bft)
12.03.2016 16:25 1,9 C 1,9 C 83 % 1021,8 hPa 0,0 mm 4,8 km/h (1 Bft) O 90 0 min -0,7 C 6,6 km/h (2 Bft)
12.03.2016 16:30 1,9 C 1,9 C 83 % 1022,0 hPa 0,0 mm 5,1 km/h (1 Bft) O-NO 67 0 min -0,7 C 4,8 km/h (1 Bft)
12.03.2016 16:34 1,8 C 1,8 C 83 % 1022,0 hPa 0,0 mm 3,0 km/h (1 Bft) W 270 0 min -0,8 C 0,0 km/h (0 Bft)
12.03.2016 16:35 1,8 C 1,8 C 83 % 1022,0 hPa 0,0 mm 3,0 km/h (1 Bft) W 270 0 min -0,8 C 0,0 km/h (0 Bft)
12.03.2016 16:40 1,8 C 1,8 C 83 % 1022,0 hPa 0,0 mm 2,4 km/h (1 Bft) O-NO 67 0 min -0,8 C 8,0 km/h (2 Bft)
12.03.2016 16:45 1,8 C 1,8 C 83 % 1022,0 hPa 0,0 mm 3,0 km/h (1 Bft) O 90 0 min -0,8 C 4,5 km/h (1 Bft)
12.03.2016 16:50 1,8 C 1,8 C 83 % 1021,9 hPa 0,0 mm 3,9 km/h (1 Bft) NO 45 0 min -0,8 C 8,0 km/h (2 Bft)
12.03.2016 16:55 1,8 C 1,6 C 83 % 1021,9 hPa 0,0 mm 5,7 km/h (1 Bft) O-NO 67 0 min -0,8 C 5,1 km/h (1 Bft)
12.03.2016 17:00 1,8 C 1,7 C 83 % 1021,9 hPa 0,0 mm 5,4 km/h (1 Bft) S 180 0 min -0,8 C 6,0 km/h (2 Bft)
12.03.2016 17:05 1,8 C 1,7 C 85 % 1021,9 hPa 0,0 mm 3,6 km/h (1 Bft) O-NO 67 0 min -0,4 C 7,2 km/h (2 Bft)
12.03.2016 17:10 1,8 C 1,7 C 85 % 1022,0 hPa 0,0 mm 3,3 km/h (1 Bft) O 90 0 min -0,4 C 5,1 km/h (1 Bft)
12.03.2016 17:15 1,7 C 1,6 C 85 % 1022,0 hPa 0,0 mm 2,4 km/h (1 Bft) NO 45 0 min -0,5 C 6,3 km/h (2 Bft)
12.03.2016 17:20 1,6 C 1,5 C 85 % 1022,0 hPa 0,0 mm 1,8 km/h (1 Bft) O-NO 67 0 min -0,6 C 4,2 km/h (1 Bft)
12.03.2016 17:26 1,6 C 1,5 C 85 % 1022,0 hPa 0,0 mm 3,0 km/h (1 Bft) O-NO 67 0 min -0,6 C 3,6 km/h (1 Bft)
12.03.2016 17:27 1,6 C 1,5 C 85 % 1022,0 hPa 0,0 mm 3,0 km/h (1 Bft) O-NO 67 0 min -0,6 C 3,6 km/h (1 Bft)
12.03.2016 17:28 1,6 C 1,5 C 85 % 1022,0 hPa 0,0 mm 3,0 km/h (1 Bft) O-NO 67 0 min -0,6 C 3,6 km/h (1 Bft)
12.03.2016 17:29 1,6 C 1,5 C 85 % 1022,0 hPa 0,0 mm 3,0 km/h (1 Bft) O-NO 67 0 min -0,6 C 3,6 km/h (1 Bft)
12.03.2016 17:30 1,7 C 1,6 C 86 % 1022,1 hPa 0,0 mm 3,9 km/h (1 Bft) O-SO 112 0 min -0,4 C 0,0 km/h (0 Bft)
12.03.2016 17:32 1,7 C 1,6 C 86 % 1022,1 hPa 0,0 mm 3,9 km/h (1 Bft) O-SO 112 0 min -0,4 C 0,0 km/h (0 Bft)
12.03.2016 17:43 1,6 C 1,5 C 86 % 1022,1 hPa 0,0 mm 2,4 km/h (1 Bft) O-SO 112 0 min -0,5 C 0,0 km/h (0 Bft)
12.03.2016 17:44 1,6 C 1,5 C 86 % 1022,1 hPa 0,0 mm 2,4 km/h (1 Bft) O-SO 112 0 min -0,5 C 0,0 km/h (0 Bft)
12.03.2016 17:45 1,5 C 1,4 C 86 % 1022,1 hPa 0,0 mm 1,2 km/h (1 Bft) SW 225 0 min -0,6 C 0,0 km/h (0 Bft)
12.03.2016 17:46 1,5 C 1,4 C 86 % 1022,1 hPa 0,0 mm 1,2 km/h (1 Bft) SW 225 0 min -0,6 C 0,0 km/h (0 Bft)
12.03.2016 17:47 1,5 C 1,4 C 86 % 1022,1 hPa 0,0 mm 1,2 km/h (1 Bft) SW 225 0 min -0,6 C 0,0 km/h (0 Bft)
12.03.2016 17:49 1,5 C 1,4 C 86 % 1022,1 hPa 0,0 mm 1,2 km/h (1 Bft) SW 225 0 min -0,6 C 0,0 km/h (0 Bft)
12.03.2016 18:00 1,5 C 1,3 C 86 % 1022,2 hPa 0,0 mm 1,5 km/h (1 Bft) N-NO 22 0 min -0,6 C 3,9 km/h (1 Bft)
12.03.2016 18:01 1,5 C 1,3 C 86 % 1022,2 hPa 0,0 mm 1,5 km/h (1 Bft) N-NO 22 0 min -0,6 C 3,9 km/h (1 Bft)
12.03.2016 18:02 1,5 C 1,3 C 86 % 1022,2 hPa 0,0 mm 1,5 km/h (1 Bft) N-NO 22 0 min -0,6 C 3,9 km/h (1 Bft)
12.03.2016 18:03 1,5 C 1,3 C 86 % 1022,2 hPa 0,0 mm 1,5 km/h (1 Bft) N-NO 22 0 min -0,6 C 3,9 km/h (1 Bft)
12.03.2016 18:04 1,5 C 1,3 C 86 % 1022,2 hPa 0,0 mm 1,5 km/h (1 Bft) N-NO 22 0 min -0,6 C 3,9 km/h (1 Bft)
12.03.2016 18:06 1,5 C 1,3 C 86 % 1022,2 hPa 0,0 mm 1,2 km/h (1 Bft) O-NO 67 0 min -0,6 C 5,1 km/h (1 Bft)
12.03.2016 18:17 1,4 C 1,3 C 86 % 1022,2 hPa 0,0 mm 0,3 km/h (0 Bft) N-NO 22 0 min -0,7 C 0,0 km/h (0 Bft)
12.03.2016 18:18 1,4 C 1,3 C 86 % 1022,2 hPa 0,0 mm 0,3 km/h (0 Bft) N-NO 22 0 min -0,7 C 0,0 km/h (0 Bft)
12.03.2016 18:19 1,4 C 1,3 C 86 % 1022,2 hPa 0,0 mm 0,3 km/h (0 Bft) N-NO 22 0 min -0,7 C 0,0 km/h (0 Bft)
12.03.2016 18:20 1,4 C 1,2 C 86 % 1022,2 hPa 0,0 mm 0,6 km/h (0 Bft) NW 315 0 min -0,7 C 0,0 km/h (0 Bft)
12.03.2016 18:21 1,4 C 1,2 C 86 % 1022,2 hPa 0,0 mm 0,6 km/h (0 Bft) NW 315 0 min -0,7 C 0,0 km/h (0 Bft)
12.03.2016 18:23 1,4 C 1,2 C 86 % 1022,2 hPa 0,0 mm 0,6 km/h (0 Bft) NW 315 0 min -0,7 C 0,0 km/h (0 Bft)
12.03.2016 18:34 1,3 C 1,1 C 86 % 1022,4 hPa 0,0 mm 0,3 km/h (0 Bft) O-NO 67 0 min -0,8 C 3,0 km/h (1 Bft)
12.03.2016 18:35 1,3 C 1,1 C 86 % 1022,4 hPa 0,0 mm 0,3 km/h (0 Bft) O-NO 67 0 min -0,8 C 3,0 km/h (1 Bft)
12.03.2016 18:36 1,3 C 1,1 C 86 % 1022,4 hPa 0,0 mm 0,3 km/h (0 Bft) O-NO 67 0 min -0,8 C 3,0 km/h (1 Bft)
12.03.2016 18:37 1,3 C 1,1 C 86 % 1022,4 hPa 0,0 mm 0,3 km/h (0 Bft) O-NO 67 0 min -0,8 C 3,0 km/h (1 Bft)
12.03.2016 18:38 1,3 C 1,1 C 86 % 1022,4 hPa 0,0 mm 0,3 km/h (0 Bft) O-NO 67 0 min -0,8 C 3,0 km/h (1 Bft)
12.03.2016 18:39 1,3 C 1,1 C 86 % 1022,4 hPa 0,0 mm 0,6 km/h (0 Bft) O-NO 67 0 min -0,8 C 0,0 km/h (0 Bft)
12.03.2016 18:44 1,3 C 1,1 C 86 % 1022,4 hPa 0,0 mm 1,2 km/h (1 Bft) SO 135 0 min -0,8 C 0,0 km/h (0 Bft)
12.03.2016 18:49 1,2 C 1,0 C 86 % 1022,6 hPa 0,0 mm 0,9 km/h (0 Bft) W 270 0 min -0,9 C 0,0 km/h (0 Bft)
12.03.2016 18:54 1,2 C 1,0 C 87 % 1022,6 hPa 0,0 mm 0,6 km/h (0 Bft) NO 45 0 min -0,7 C 0,0 km/h (0 Bft)
12.03.2016 18:59 1,2 C 1,0 C 87 % 1022,6 hPa 0,0 mm 1,5 km/h (1 Bft) O-NO 67 0 min -0,7 C 5,4 km/h (1 Bft)
12.03.2016 19:04 1,2 C 1,0 C 87 % 1022,6 hPa 0,0 mm 2,4 km/h (1 Bft) N-NO 22 0 min -0,7 C 7,2 km/h (2 Bft)
12.03.2016 19:09 1,3 C 1,1 C 87 % 1022,6 hPa 0,0 mm 3,0 km/h (1 Bft) N-NO 22 0 min -0,6 C 4,8 km/h (1 Bft)
12.03.2016 19:14 1,3 C 1,1 C 87 % 1022,6 hPa 0,0 mm 2,7 km/h (1 Bft) O-SO 112 0 min -0,6 C 4,2 km/h (1 Bft)
12.03.2016 19:19 1,3 C 1,1 C 87 % 1022,6 hPa 0,0 mm 1,8 km/h (1 Bft) O-NO 67 0 min -0,6 C 9,8 km/h (2 Bft)
12.03.2016 19:24 1,3 C 1,1 C 87 % 1022,6 hPa 0,0 mm 1,2 km/h (1 Bft) N-NW 337 0 min -0,6 C 0,0 km/h (0 Bft)
12.03.2016 19:29 1,3 C 1,1 C 88 % 1022,5 hPa 0,0 mm 1,2 km/h (1 Bft) O-SO 112 0 min -0,5 C 0,0 km/h (0 Bft)
12.03.2016 19:34 1,3 C 1,1 C 88 % 1022,5 hPa 0,0 mm 0,6 km/h (0 Bft) O-NO 67 0 min -0,5 C 0,0 km/h (0 Bft)
12.03.2016 19:35 1,3 C 1,1 C 88 % 1022,5 hPa 0,0 mm 0,6 km/h (0 Bft) O-NO 67 0 min -0,5 C 0,0 km/h (0 Bft)
12.03.2016 19:40 1,3 C 1,1 C 88 % 1022,5 hPa 0,0 mm 0,3 km/h (0 Bft) NW 315 0 min -0,5 C 0,0 km/h (0 Bft)
12.03.2016 19:45 1,3 C 1,1 C 87 % 1022,5 hPa 0,0 mm 0,0 km/h (0 Bft) S-SO 157 0 min -0,6 C 0,0 km/h (0 Bft)
12.03.2016 19:50 1,3 C 1,1 C 87 % 1022,8 hPa 0,0 mm 0,0 km/h (0 Bft) N-NO 22 0 min -0,6 C 0,0 km/h (0 Bft)
12.03.2016 19:55 1,3 C 1,1 C 88 % 1022,8 hPa 0,0 mm 0,3 km/h (0 Bft) SW 225 0 min -0,5 C 0,0 km/h (0 Bft)
12.03.2016 20:00 1,3 C 1,1 C 88 % 1022,8 hPa 0,0 mm 0,3 km/h (0 Bft) NW 315 0 min -0,5 C 0,0 km/h (0 Bft)
12.03.2016 20:05 1,2 C 1,0 C 88 % 1022,8 hPa 0,0 mm 0,0 km/h (0 Bft) O-NO 67 0 min -0,6 C 0,0 km/h (0 Bft)
12.03.2016 20:10 1,3 C 1,1 C 88 % 1022,9 hPa 0,0 mm 0,3 km/h (0 Bft) S-SW 202 0 min -0,5 C 0,0 km/h (0 Bft)
12.03.2016 20:15 1,3 C 1,1 C 88 % 1022,9 hPa 0,0 mm 0,3 km/h (0 Bft) O 90 0 min -0,5 C 0,0 km/h (0 Bft)
12.03.2016 20:20 1,4 C 1,2 C 88 % 1022,9 hPa 0,0 mm 0,6 km/h (0 Bft) O-NO 67 0 min -0,4 C 3,0 km/h (1 Bft)
12.03.2016 20:25 1,4 C 1,2 C 88 % 1022,9 hPa 0,0 mm 1,8 km/h (1 Bft) O-NO 67 0 min -0,4 C 8,3 km/h (2 Bft)
12.03.2016 20:30 1,4 C 1,2 C 88 % 1023,2 hPa 0,0 mm 2,1 km/h (1 Bft) N-NW 337 0 min -0,4 C 0,0 km/h (0 Bft)
12.03.2016 20:35 1,4 C 1,2 C 88 % 1023,2 hPa 0,0 mm 2,7 km/h (1 Bft) S-SO 157 0 min -0,4 C 0,0 km/h (0 Bft)
12.03.2016 20:40 1,3 C 1,1 C 88 % 1023,2 hPa 0,0 mm 1,5 km/h (1 Bft) S 180 0 min -0,5 C 4,2 km/h (1 Bft)
12.03.2016 20:45 1,3 C 1,1 C 88 % 1023,2 hPa 0,0 mm 2,7 km/h (1 Bft) O-SO 112 0 min -0,5 C 0,0 km/h (0 Bft)
12.03.2016 20:50 1,3 C 1,1 C 88 % 1023,0 hPa 0,0 mm 4,2 km/h (1 Bft) O-NO 67 0 min -0,5 C 11,9 km/h (2 Bft)
12.03.2016 20:55 1,4 C 1,0 C 89 % 1023,0 hPa 0,0 mm 6,0 km/h (2 Bft) O 90 0 min -0,2 C 10,1 km/h (2 Bft)
12.03.2016 21:00 1,4 C 0,8 C 89 % 1023,0 hPa 0,0 mm 7,7 km/h (2 Bft) O-SO 112 0 min -0,2 C 4,5 km/h (1 Bft)
12.03.2016 21:05 1,4 C 1,0 C 89 % 1023,0 hPa 0,0 mm 6,3 km/h (2 Bft) O-NO 67 0 min -0,2 C 0,0 km/h (0 Bft)
12.03.2016 21:10 1,4 C 1,2 C 89 % 1023,0 hPa 0,0 mm 4,5 km/h (1 Bft) O-NO 67 0 min -0,2 C 8,3 km/h (2 Bft)
12.03.2016 21:15 1,3 C 1,1 C 89 % 1023,0 hPa 0,0 mm 2,7 km/h (1 Bft) O-NO 67 0 min -0,3 C 0,0 km/h (0 Bft)
12.03.2016 21:20 1,3 C 1,1 C 89 % 1023,0 hPa 0,0 mm 3,0 km/h (1 Bft) O-NO 67 0 min -0,3 C 5,1 km/h (1 Bft)
12.03.2016 21:25 1,3 C 1,1 C 89 % 1023,0 hPa 0,0 mm 1,8 km/h (1 Bft) NO 45 0 min -0,3 C 3,0 km/h (1 Bft)
12.03.2016 21:30 1,3 C 1,1 C 89 % 1023,1 hPa 0,0 mm 3,6 km/h (1 Bft) N-NO 22 0 min -0,3 C 8,3 km/h (2 Bft)
12.03.2016 21:35 1,3 C 1,1 C 89 % 1023,1 hPa 0,0 mm 3,3 km/h (1 Bft) O-NO 67 0 min -0,3 C 6,9 km/h (2 Bft)
12.03.2016 21:40 1,3 C 1,1 C 89 % 1023,1 hPa 0,0 mm 3,6 km/h (1 Bft) O-NO 67 0 min -0,3 C 0,0 km/h (0 Bft)
12.03.2016 21:45 1,3 C 1,0 C 89 % 1023,1 hPa 0,0 mm 4,8 km/h (1 Bft) O-SO 112 0 min -0,3 C 5,1 km/h (1 Bft)
12.03.2016 21:50 1,3 C 1,1 C 89 % 1022,9 hPa 0,0 mm 4,5 km/h (1 Bft) O-NO 67 0 min -0,3 C 7,2 km/h (2 Bft)
12.03.2016 21:55 1,2 C 1,0 C 89 % 1022,9 hPa 0,0 mm 4,8 km/h (1 Bft) O 90 0 min -0,4 C 6,3 km/h (2 Bft)
12.03.2016 22:00 1,2 C 1,0 C 89 % 1022,9 hPa 0,0 mm 3,6 km/h (1 Bft) O-SO 112 0 min -0,4 C 4,2 km/h (1 Bft)
12.03.2016 22:05 1,2 C 1,0 C 89 % 1022,9 hPa 0,0 mm 3,3 km/h (1 Bft) N 360 0 min -0,4 C 3,6 km/h (1 Bft)
12.03.2016 22:10 1,1 C 0,9 C 89 % 1022,9 hPa 0,0 mm 2,7 km/h (1 Bft) O-NO 67 0 min -0,5 C 6,3 km/h (2 Bft)
12.03.2016 22:15 1,1 C 0,9 C 89 % 1022,9 hPa 0,0 mm 2,7 km/h (1 Bft) O 90 0 min -0,5 C 3,3 km/h (1 Bft)
12.03.2016 22:20 1,1 C 0,8 C 89 % 1022,9 hPa 0,0 mm 5,4 km/h (1 Bft) O 90 0 min -0,5 C 5,1 km/h (1 Bft)
12.03.2016 22:25 1,1 C 0,7 C 89 % 1022,9 hPa 0,0 mm 6,0 km/h (2 Bft) O 90 0 min -0,5 C 0,0 km/h (0 Bft)
12.03.2016 22:30 1,1 C 0,9 C 89 % 1022,8 hPa 0,0 mm 3,6 km/h (1 Bft) O-SO 112 0 min -0,5 C 3,9 km/h (1 Bft)
12.03.2016 22:35 1,1 C 0,9 C 89 % 1022,8 hPa 0,0 mm 2,7 km/h (1 Bft) NO 45 0 min -0,5 C 0,0 km/h (0 Bft)
12.03.2016 22:36 1,1 C 0,9 C 89 % 1022,8 hPa 0,0 mm 2,7 km/h (1 Bft) NO 45 0 min -0,5 C 0,0 km/h (0 Bft)
12.03.2016 22:40 1,0 C 0,8 C 89 % 1022,8 hPa 0,0 mm 1,8 km/h (1 Bft) NO 45 0 min -0,6 C 0,0 km/h (0 Bft)
12.03.2016 22:45 1,0 C 0,8 C 89 % 1022,8 hPa 0,0 mm 1,2 km/h (1 Bft) NO 45 0 min -0,6 C 0,0 km/h (0 Bft)
12.03.2016 22:50 1,0 C 0,8 C 89 % 1022,6 hPa 0,0 mm 2,7 km/h (1 Bft) NO 45 0 min -0,6 C 6,0 km/h (2 Bft)
12.03.2016 22:55 1,0 C 0,7 C 89 % 1022,6 hPa 0,0 mm 4,8 km/h (1 Bft) O-NO 67 0 min -0,6 C 4,8 km/h (1 Bft)
12.03.2016 23:00 1,0 C 0,7 C 89 % 1022,6 hPa 0,0 mm 5,1 km/h (1 Bft) N 360 0 min -0,6 C 8,3 km/h (2 Bft)
12.03.2016 23:05 1,0 C 0,6 C 89 % 1022,6 hPa 0,0 mm 5,4 km/h (1 Bft) O 90 0 min -0,6 C 7,2 km/h (2 Bft)
12.03.2016 23:10 0,9 C 0,5 C 90 % 1022,6 hPa 0,0 mm 6,3 km/h (2 Bft) O-SO 112 0 min -0,6 C 13,7 km/h (3 Bft)
12.03.2016 23:15 0,9 C 0,5 C 90 % 1022,6 hPa 0,0 mm 6,0 km/h (2 Bft) NO 45 0 min -0,6 C 10,4 km/h (2 Bft)
12.03.2016 23:20 0,9 C 0,3 C 91 % 1022,6 hPa 0,0 mm 7,5 km/h (2 Bft) O 90 0 min -0,4 C 5,7 km/h (1 Bft)
12.03.2016 23:25 0,9 C 0,4 C 91 % 1022,6 hPa 0,0 mm 6,9 km/h (2 Bft) NO 45 0 min -0,4 C 8,0 km/h (2 Bft)
12.03.2016 23:30 0,9 C 0,6 C 91 % 1022,6 hPa 0,0 mm 4,8 km/h (1 Bft) SW 225 0 min -0,4 C 9,8 km/h (2 Bft)
12.03.2016 23:35 0,8 C 0,6 C 91 % 1022,6 hPa 0,0 mm 4,5 km/h (1 Bft) O-NO 67 0 min -0,5 C 4,8 km/h (1 Bft)
12.03.2016 23:40 0,8 C 0,5 C 91 % 1022,6 hPa 0,0 mm 5,1 km/h (1 Bft) NO 45 0 min -0,5 C 8,3 km/h (2 Bft)
12.03.2016 23:45 0,8 C 0,3 C 91 % 1022,6 hPa 0,0 mm 6,9 km/h (2 Bft) NO 45 0 min -0,5 C 16,4 km/h (3 Bft)
12.03.2016 23:50 0,8 C 0,3 C 91 % 1022,4 hPa 0,0 mm 6,6 km/h (2 Bft) O-NO 67 0 min -0,5 C 4,8 km/h (1 Bft)
12.03.2016 23:55 0,8 C 0,5 C 91 % 1022,4 hPa 0,0 mm 5,4 km/h (1 Bft) NO 45 0 min -0,5 C 12,5 km/h (3 Bft)
_ Min-Zeit 00:30 23:50 01:40 06:05 - 20:05 - - - 00:30 22:45
Minimum _ 0,0 C 0,3 C 79 % 1020,2 hPa - 0,0 km/h (0 Bft) - - - -3,2 C 0,0 km/h (0 Bft)
_ Max-Zeit 15:05 15:05 23:55 20:45 23:55 10:15 - - 23:55 21:10 09:55
Maximum _ 2,3 C 2,6 C 91 % 1023,2 hPa 0,0 mm 11,9 km/h
NO (2 Bft)
- - 0 min -0,2 C 29,2 km/h
N-NO (5 Bft)
Durchschnitt _ 1,4 C 1,3 C 84 % 1021,7 hPa #0,0 mm 3,8 km/h (1 Bft) O-NO - #0 min. -1,0 C 5,1 km/h (1 Bft)